sat.trackr.live / text

‹ back to catalog

ONEWEB-0055

NORAD 45443 · 2020-020V

PAYLOAD ACTIVE UNKNOWN

§ Identity

Operator
Country
UK
Launch date
2020-03-21
Launch site
TYMSC
Launch vehicle
Mass (kg)
RCS (m²)

Purposes: comms

External: N2YO · Heavens-Above · Gunter

§ Orbital elements

Epoch: 2026-09-14T17:54:24.196896Z

Period
109.80 min
Inclination
87.8975°
Eccentricity
0.0001782
Mean motion
13.11416553 rev/d
Perigee alt
1,216.3 km
Apogee alt
1,219.0 km
Semi-major
7,595.8 km
B*
1.5209e-3
RAAN
3.2659°
Arg perigee
102.7477°
Mean anomaly
257.3850°
Rev number
31,435

§ Raw data

ONEWEB-00551 45443U 20020V   26257.74611339  .00000552  00000+0  15209-2 0  99902 45443  87.8975   3.2659 0001782 102.7477 257.3850 13.11416553314353

JSON: /api/v1/satellites/45443 · /tle

For live sub-satellite position, see the globe view (requires WebGL).

§ Visibility from observer

Set your observer location to see the next 7 days of passes ≥ 10°. The values pass through the URL so the page stays shareable.

No JS? Fill the form by hand. The geolocation button needs JavaScript.